Location: Unspecified
(48.5670°N, 0.0000°E)
Time: 04:13:10
(UTC+00:00)

Vanguard 2 Rocket - Pass Details

Date: 25 August 2019
Orbit: 554 x 3326 km, 32.9° (Epoch: 21 September)

Event Time Altitude Azimuth Distance (km) Brightness Sun altitude
Rises 01:00:29 0° 201° (SSW) 4,444 - -29.1°
Reaches altitude 10° 01:03:57 10° 186° (S) 3,867 - -29.0°
Exits shadow 01:10:28 22° 147° (SSE) 3,671 9.6 -28.6°
Maximum altitude 01:11:36 22° 140° (SE) 3,760 9.7 -28.6°
Drops below altitude 10° 01:22:12 10° 98° (E) 5,572 11.0 -28.0°
Sets 01:28:39 0° 87° (E) 6,972 11.8 -27.5°
